Weather History for Albany, NY

Change the Weather History Date:

Monday, October 4, 2010

  Actual Average Record
Temperature  
Mean Temperature 53 °F 54 °F  
Max Temperature 59 °F 65 °F 86 °F (1881)
Min Temperature 47 °F 44 °F 26 °F (1945)
Degree Days  
Heating Degree Days 12 11  
Month to date heating degree days 44 42  
Since 1 July heating degree days 144 209  
Cooling Degree Days 0 0  
Month to date cooling degree days 0 0  
Year to date cooling degree days 839 594  
Growing Degree Days 2 (Base 50)    
Moisture  
Dew Point 43 °F    
Average Humidity 74    
Maximum Humidity 93    
Minimum Humidity 55    
Precipitation  
Precipitation 0.21 in 0.12 in 2.82 in (1987)
Month to date precipitation 3.25 0.48  
Year to date precipitation 27.51 29.93  
Snow  
Snow 0.00 in 0.00 in 6.50 in ()
Month to date snowfall 0.0 0.0  
Since 1 July snowfall 0.0 0.0  
Since 1 September snowfall 0.0 0.0  
Snow Depth 0.00 in    
Sea Level Pressure  
Sea Level Pressure 30.20 in    
Wind  
Wind Speed 7 mph (North)    
Max Wind Speed 16 mph    
Max Gust Speed 20 mph    
Visibility 9 miles    
Events Rain    
T = Trace of Precipitation, MM = Missing Value Source: NWS Daily Summary

Daily Weather History Graph

Daily Weather History Graph

Search for Another Location

Airport:

Trip Planner

Search our weather history database for the weather conditions in past years. The results will help you decide how hot, cold, wet, or windy it might be!

Date:

Astronomy

Oct. 04, 2010 Rise Set
Actual Time 6:55 AM EDT 6:31 PM EDT
Civil Twilight 6:27 AM EDT 6:59 PM EDT
Nautical Twilight 5:54 AM EDT 7:32 PM EDT
Astronomical Twilight 5:21 AM EDT 8:05 PM EDT
Moon 2:56 AM EDT (10/4) 4:32 PM EDT (10/4)
Length of Visible Light 12h 32m
Length of Day
11h 35m
Waning Crescent, 14% of the Moon is Illuminated
Oct 4
Waning Crescent
Oct 7
New
Oct 14
First Quarter
Oct 22
Full
Oct 30
Last Quarter

Hourly Weather History & Observations

Time (EDT) Temp. Dew Point Humidity Pressure Visibility Wind Dir Wind Speed Gust Speed Precip Events Conditions
12:51 AM 48.0 °F 39.0 °F 71% 30.26 in 10.0 mi NNE 8.1 mph - N/A   Mostly Cloudy
1:51 AM 48.0 °F 39.0 °F 71% 30.27 in 10.0 mi NNE 6.9 mph - N/A   Overcast
2:51 AM 48.0 °F 39.0 °F 71% 30.26 in 10.0 mi North 4.6 mph - N/A   Overcast
3:51 AM 48.0 °F 39.0 °F 71% 30.25 in 10.0 mi North 6.9 mph - N/A   Mostly Cloudy
4:51 AM 46.9 °F 39.9 °F 77% 30.24 in 10.0 mi North 8.1 mph - N/A   Mostly Cloudy
5:51 AM 46.9 °F 39.9 °F 77% 30.25 in 10.0 mi North 5.8 mph - N/A   Mostly Cloudy
6:51 AM 46.9 °F 39.9 °F 77% 30.25 in 10.0 mi North 4.6 mph - N/A   Overcast
7:51 AM 48.0 °F 39.9 °F 74% 30.26 in 10.0 mi NNE 8.1 mph - N/A   Mostly Cloudy
8:51 AM 48.9 °F 39.9 °F 71% 30.27 in 10.0 mi NNE 9.2 mph - N/A   Mostly Cloudy
9:51 AM 51.1 °F 39.9 °F 66% 30.25 in 10.0 mi NNE 12.7 mph - N/A   Mostly Cloudy
10:51 AM 52.0 °F 41.0 °F 66% 30.23 in 10.0 mi North 8.1 mph - N/A   Overcast
11:51 AM 54.0 °F 41.0 °F 62% 30.22 in 10.0 mi North 11.5 mph 17.3 mph 0.00 in   Mostly Cloudy
12:51 PM 57.0 °F 41.0 °F 55% 30.19 in 10.0 mi North 11.5 mph 18.4 mph N/A   Mostly Cloudy
1:51 PM 55.9 °F 41.0 °F 57% 30.16 in 10.0 mi North 9.2 mph - N/A   Mostly Cloudy
2:51 PM 57.9 °F 42.1 °F 56% 30.13 in 10.0 mi North 10.4 mph - N/A   Mostly Cloudy
3:51 PM 57.9 °F 43.0 °F 58% 30.12 in 10.0 mi North 8.1 mph - N/A   Overcast
4:51 PM 55.0 °F 46.0 °F 72% 30.12 in 3.0 mi North 5.8 mph - 0.02 in Rain Rain
5:51 PM 53.1 °F 48.9 °F 86% 30.14 in 7.0 mi North 3.5 mph - 0.04 in Rain Light Rain
6:44 PM 51.8 °F 48.2 °F 88% 30.15 in 2.0 mi NW 6.9 mph - 0.03 in Rain Rain
6:51 PM 52.0 °F 48.9 °F 89% 30.16 in 5.0 mi NNW 6.9 mph - 0.08 in Rain Light Rain
7:51 PM 52.0 °F 48.9 °F 89% 30.16 in 10.0 mi North 3.5 mph - 0.00 in   Overcast
8:51 PM 51.1 °F 48.0 °F 89% 30.16 in 10.0 mi North 5.8 mph - 0.01 in   Overcast
9:51 PM 51.1 °F 48.0 °F 89% 30.16 in 10.0 mi NNE 6.9 mph - N/A   Overcast
10:51 PM 51.1 °F 46.9 °F 86% 30.14 in 10.0 mi NNE 6.9 mph - 0.01 in Rain Light Rain
11:51 PM 50.0 °F 48.0 °F 93% 30.14 in 10.0 mi North 4.6 mph - 0.05 in Rain Light Rain